Time,TemperatureF,DewpointF,PressureIn,WindDirection,WindDirectionDegrees,WindSpeedMPH,WindSpeedGustMPH,Humidity,HourlyPrecipIn,Conditions,Clouds,dailyrainin,SoftwareType,DateUTC
2013-01-14 00:10:00,56.8,55.0,30.00,NE,39,0.0,4.0,93,0.27,,,0.07,weatherlink.com 1.10,2013-01-14 05:10:00,
2013-01-14 00:26:00,56.3,55.0,30.00,NNE,27,2.0,2.0,94,0.22,,,0.08,weatherlink.com 1.10,2013-01-14 05:26:00,
2013-01-14 00:42:00,55.7,55.0,30.00,NNE,21,0.0,3.0,96,0.25,,,0.15,weatherlink.com 1.10,2013-01-14 05:42:00,
2013-01-14 00:56:00,55.5,54.0,30.00,NNE,21,0.0,2.0,96,0.20,,,0.16,weatherlink.com 1.10,2013-01-14 05:56:00,
2013-01-14 01:11:00,55.3,55.0,30.00,NNE,21,0.0,1.0,97,0.10,,,0.17,weatherlink.com 1.10,2013-01-14 06:11:00,
2013-01-14 01:26:00,55.4,54.0,30.00,NNE,28,2.0,7.0,96,0.12,,,0.20,weatherlink.com 1.10,2013-01-14 06:26:00,
2013-01-14 01:41:00,56.0,54.0,29.99,ENE,77,1.0,5.0,93,0.07,,,0.22,weatherlink.com 1.10,2013-01-14 06:41:00,
2013-01-14 01:56:00,55.8,54.0,29.99,NNE,15,1.0,4.0,93,0.07,,,0.23,weatherlink.com 1.10,2013-01-14 06:56:00,
2013-01-14 02:11:00,56.0,54.0,29.99,NNE,18,2.0,4.0,93,0.08,,,0.25,weatherlink.com 1.10,2013-01-14 07:11:00,
2013-01-14 02:26:00,56.5,54.0,30.00,NE,38,0.0,6.0,92,0.05,,,0.25,weatherlink.com 1.10,2013-01-14 07:26:00,
2013-01-14 02:41:00,55.5,54.0,29.99,NNE,27,0.0,5.0,95,0.03,,,0.25,weatherlink.com 1.10,2013-01-14 07:41:00,
2013-01-14 02:56:00,55.0,54.0,29.99,NNE,27,0.0,3.0,96,0.02,,,0.25,weatherlink.com 1.10,2013-01-14 07:56:00,
2013-01-14 03:11:00,55.1,54.0,29.98,NE,38,2.0,4.0,96,0.01,,,0.26,weatherlink.com 1.10,2013-01-14 08:11:00,
2013-01-14 03:26:00,55.0,54.0,29.98,ESE,113,0.0,1.0,97,0.01,,,0.26,weatherlink.com 1.10,2013-01-14 08:26:00,
2013-01-14 03:41:00,55.3,55.0,29.98,NE,50,1.0,5.0,97,0.01,,,0.26,weatherlink.com 1.10,2013-01-14 08:41:00,
2013-01-14 03:56:00,55.5,55.0,29.98,ENE,77,0.0,5.0,97,0.01,,,0.26,weatherlink.com 1.10,2013-01-14 08:56:00,
2013-01-14 04:11:00,55.9,55.0,29.97,NNE,30,0.0,5.0,96,0.00,,,0.26,weatherlink.com 1.10,2013-01-14 09:11:00,
2013-01-14 04:26:00,56.2,55.0,29.96,WSW,257,2.0,3.0,95,0.00,,,0.26,weatherlink.com 1.10,2013-01-14 09:26:00,
2013-01-14 04:41:00,55.7,55.0,29.97,NE,34,5.0,5.0,96,0.00,,,0.26,weatherlink.com 1.10,2013-01-14 09:41:00,
2013-01-14 04:56:00,56.4,55.0,29.96,NE,47,5.0,6.0,95,0.00,,,0.26,weatherlink.com 1.10,2013-01-14 09:56:00,
2013-01-14 05:11:00,56.0,55.0,29.96,NNE,28,6.0,6.0,95,0.00,,,0.26,weatherlink.com 1.10,2013-01-14 10:11:00,
2013-01-14 05:26:00,56.3,55.0,29.96,NE,44,4.0,6.0,95,0.00,,,0.26,weatherlink.com 1.10,2013-01-14 10:26:00,
2013-01-14 05:41:00,56.5,55.0,29.96,WNW,284,0.0,3.0,94,0.00,,,0.26,weatherlink.com 1.10,2013-01-14 10:41:00,
2013-01-14 05:56:00,55.7,55.0,29.97,North,358,1.0,3.0,96,0.00,,,0.26,weatherlink.com 1.10,2013-01-14 10:56:00,
2013-01-14 06:11:00,55.3,55.0,29.97,NE,48,3.0,4.0,97,0.00,,,0.26,weatherlink.com 1.10,2013-01-14 11:11:00,
2013-01-14 06:26:00,55.9,55.0,29.98,NE,49,0.0,5.0,98,0.00,,,0.26,weatherlink.com 1.10,2013-01-14 11:26:00,
2013-01-14 06:41:00,55.4,55.0,29.98,NNE,29,0.0,2.0,97,0.00,,,0.26,weatherlink.com 1.10,2013-01-14 11:41:00,
2013-01-14 06:56:00,55.4,55.0,29.98,NNE,12,0.0,3.0,97,0.01,,,0.27,weatherlink.com 1.10,2013-01-14 11:56:00,
2013-01-14 07:11:00,55.0,54.0,29.99,NNE,21,1.0,3.0,97,0.02,,,0.28,weatherlink.com 1.10,2013-01-14 12:11:00,
2013-01-14 07:26:00,54.5,54.0,30.00,NE,35,0.0,2.0,97,0.04,,,0.30,weatherlink.com 1.10,2013-01-14 12:26:00,
2013-01-14 07:41:00,54.5,54.0,30.00,NE,35,0.0,0.0,98,0.04,,,0.30,weatherlink.com 1.10,2013-01-14 12:41:00,
2013-01-14 07:56:00,54.4,54.0,30.00,NE,35,0.0,1.0,98,0.04,,,0.31,weatherlink.com 1.10,2013-01-14 12:56:00,
2013-01-14 08:11:00,54.2,54.0,30.02,NE,35,3.0,3.0,98,0.03,,,0.31,weatherlink.com 1.10,2013-01-14 13:11:00,
2013-01-14 08:26:00,55.0,55.0,30.01,WSW,246,0.0,8.0,98,0.01,,,0.31,weatherlink.com 1.10,2013-01-14 13:26:00,
2013-01-14 08:41:00,54.5,54.0,30.02,NNE,12,0.0,6.0,98,0.02,,,0.32,weatherlink.com 1.10,2013-01-14 13:41:00,
2013-01-14 08:56:00,54.0,54.0,30.03,NNE,12,0.0,1.0,98,0.03,,,0.34,weatherlink.com 1.10,2013-01-14 13:56:00,
2013-01-14 09:11:00,54.0,54.0,30.03,NNE,12,0.0,1.0,98,0.10,,,0.41,weatherlink.com 1.10,2013-01-14 14:11:00,
2013-01-14 09:26:00,54.0,54.0,30.03,NNE,12,0.0,0.0,98,0.17,,,0.48,weatherlink.com 1.10,2013-01-14 14:26:00,
2013-01-14 09:41:00,54.1,54.0,30.04,NNE,12,0.0,0.0,98,0.25,,,0.57,weatherlink.com 1.10,2013-01-14 14:41:00,
2013-01-14 09:56:00,54.3,54.0,30.03,NNE,12,0.0,0.0,99,0.30,,,0.64,weatherlink.com 1.10,2013-01-14 14:56:00,
2013-01-14 10:11:00,54.1,54.0,30.04,NNE,12,0.0,0.0,98,0.28,,,0.69,weatherlink.com 1.10,2013-01-14 15:11:00,
2013-01-14 10:26:00,54.3,54.0,30.04,NE,34,0.0,1.0,99,0.32,,,0.80,weatherlink.com 1.10,2013-01-14 15:26:00,
2013-01-14 10:41:00,54.5,54.0,30.04,NE,34,0.0,0.0,99,0.37,,,0.95,weatherlink.com 1.10,2013-01-14 15:41:00,
2013-01-14 10:58:00,53.9,53.0,30.03,NE,34,0.0,1.0,98,0.41,,,1.05,weatherlink.com 1.10,2013-01-14 15:58:00,
2013-01-14 11:12:00,52.5,52.0,30.03,NE,41,0.0,0.0,98,0.43,,,1.12,weatherlink.com 1.10,2013-01-14 16:12:00,
2013-01-14 11:27:00,52.1,52.0,30.02,NE,41,0.0,2.0,98,0.38,,,1.18,weatherlink.com 1.10,2013-01-14 16:27:00,
2013-01-14 11:42:00,52.8,53.0,30.01,NE,41,0.0,1.0,99,0.31,,,1.26,weatherlink.com 1.10,2013-01-14 16:42:00,
2013-01-14 11:57:00,52.6,52.0,30.00,NE,41,0.0,1.0,99,0.22,,,1.27,weatherlink.com 1.10,2013-01-14 16:57:00,
2013-01-14 12:12:00,52.1,52.0,29.99,NE,41,0.0,0.0,98,0.18,,,1.31,weatherlink.com 1.10,2013-01-14 17:12:00,
2013-01-14 12:27:00,53.3,53.0,29.99,NE,41,0.0,0.0,99,0.24,,,1.42,weatherlink.com 1.10,2013-01-14 17:27:00,
2013-01-14 12:42:00,53.4,53.0,29.98,NE,41,0.0,1.0,99,0.26,,,1.52,weatherlink.com 1.10,2013-01-14 17:42:00,
2013-01-14 12:57:00,53.1,53.0,29.99,NE,46,1.0,4.0,99,0.32,,,1.59,weatherlink.com 1.10,2013-01-14 17:57:00,
2013-01-14 13:12:00,54.3,54.0,29.99,NE,46,0.0,3.0,99,0.34,,,1.65,weatherlink.com 1.10,2013-01-14 18:12:00,
2013-01-14 13:27:00,52.9,53.0,29.98,NE,46,0.0,2.0,99,0.26,,,1.69,weatherlink.com 1.10,2013-01-14 18:27:00,
2013-01-14 13:42:00,53.6,53.0,29.98,NE,41,0.0,2.0,99,0.22,,,1.74,weatherlink.com 1.10,2013-01-14 18:42:00,
2013-01-14 13:57:00,53.6,53.0,29.98,NE,41,0.0,1.0,99,0.19,,,1.78,weatherlink.com 1.10,2013-01-14 18:57:00,
2013-01-14 14:12:00,52.4,52.0,29.98,NE,41,0.0,0.0,98,0.17,,,1.82,weatherlink.com 1.10,2013-01-14 19:12:00,
2013-01-14 14:27:00,52.5,52.0,29.98,SSW,192,1.0,3.0,99,0.21,,,1.90,weatherlink.com 1.10,2013-01-14 19:27:00,
2013-01-14 14:42:00,50.6,50.0,29.98,NNE,22,0.0,4.0,98,0.20,,,1.94,weatherlink.com 1.10,2013-01-14 19:42:00,
2013-01-14 14:57:00,51.0,51.0,29.98,East,81,1.0,3.0,99,0.21,,,1.99,weatherlink.com 1.10,2013-01-14 19:57:00,
2013-01-14 15:12:00,51.6,51.0,29.98,ENE,60,0.0,3.0,99,0.18,,,2.01,weatherlink.com 1.10,2013-01-14 20:12:00,
2013-01-14 15:27:00,52.3,52.0,29.99,ENE,60,0.0,2.0,99,0.14,,,2.04,weatherlink.com 1.10,2013-01-14 20:27:00,
2013-01-14 15:42:00,52.3,52.0,30.00,ENE,60,0.0,1.0,99,0.11,,,2.05,weatherlink.com 1.10,2013-01-14 20:42:00,
2013-01-14 15:58:00,52.6,52.0,30.00,ENE,60,1.0,2.0,99,0.08,,,2.07,weatherlink.com 1.10,2013-01-14 20:58:00,
2013-01-14 16:12:00,53.4,53.0,30.00,NE,39,2.0,4.0,99,0.12,,,2.13,weatherlink.com 1.10,2013-01-14 21:12:00,
2013-01-14 16:27:00,53.2,53.0,30.00,WSW,247,0.0,3.0,99,0.11,,,2.15,weatherlink.com 1.10,2013-01-14 21:27:00,
2013-01-14 16:42:00,53.5,53.0,30.00,WNW,292,1.0,2.0,99,0.15,,,2.20,weatherlink.com 1.10,2013-01-14 21:42:00,
2013-01-14 16:57:00,53.8,54.0,30.00,SSW,208,3.0,9.0,99,0.16,,,2.23,weatherlink.com 1.10,2013-01-14 21:57:00,
2013-01-14 17:12:00,53.8,54.0,30.00,NNE,29,3.0,8.0,99,0.11,,,2.24,weatherlink.com 1.10,2013-01-14 22:12:00,
2013-01-14 17:27:00,55.2,55.0,30.01,North,360,6.0,8.0,100,0.09,,,2.25,weatherlink.com 1.10,2013-01-14 22:27:00,
2013-01-14 17:42:00,56.7,55.0,30.03,NW,304,2.0,13.0,95,0.06,,,2.27,weatherlink.com 1.10,2013-01-14 22:42:00,
2013-01-14 17:57:00,57.2,55.0,30.03,WNW,294,3.0,12.0,91,0.06,,,2.29,weatherlink.com 1.10,2013-01-14 22:57:00,
2013-01-14 18:12:00,57.4,55.0,30.03,SSW,192,2.0,14.0,90,0.06,,,2.30,weatherlink.com 1.10,2013-01-14 23:12:00,
2013-01-14 18:27:00,56.7,53.0,30.03,WSW,239,3.0,13.0,88,0.07,,,2.32,weatherlink.com 1.10,2013-01-14 23:27:00,
2013-01-14 18:42:00,54.2,52.0,30.04,NNE,13,2.0,8.0,92,0.08,,,2.35,weatherlink.com 1.10,2013-01-14 23:42:00,
2013-01-14 18:57:00,49.5,47.0,30.04,SSW,213,1.0,7.0,91,0.09,,,2.38,weatherlink.com 1.10,2013-01-14 23:57:00,
2013-01-14 19:12:00,46.4,45.0,30.05,South,170,0.0,3.0,95,0.11,,,2.41,weatherlink.com 1.10,2013-01-15 00:12:00,
2013-01-14 19:27:00,45.9,45.0,30.05,South,170,1.0,2.0,97,0.12,,,2.44,weatherlink.com 1.10,2013-01-15 00:27:00,
2013-01-14 19:42:00,45.5,45.0,30.05,South,177,0.0,3.0,97,0.09,,,2.44,weatherlink.com 1.10,2013-01-15 00:42:00,
2013-01-14 19:57:00,45.3,45.0,30.05,South,177,0.0,1.0,98,0.08,,,2.46,weatherlink.com 1.10,2013-01-15 00:57:00,
2013-01-14 20:12:00,45.9,45.0,30.05,ENE,57,0.0,3.0,98,0.08,,,2.49,weatherlink.com 1.10,2013-01-15 01:12:00,
2013-01-14 20:27:00,45.7,45.0,30.06,ENE,57,1.0,2.0,98,0.07,,,2.51,weatherlink.com 1.10,2013-01-15 01:27:00,
2013-01-14 20:42:00,44.6,44.0,30.07,NE,46,0.0,1.0,98,0.09,,,2.53,weatherlink.com 1.10,2013-01-15 01:42:00,
2013-01-14 20:57:00,44.6,44.0,30.08,WNW,296,1.0,3.0,98,0.09,,,2.55,weatherlink.com 1.10,2013-01-15 01:57:00,
2013-01-14 21:12:00,44.0,44.0,30.08,WSW,242,0.0,3.0,98,0.06,,,2.56,weatherlink.com 1.10,2013-01-15 02:12:00,
2013-01-14 21:28:00,42.9,42.0,30.07,SSE,156,0.0,2.0,98,0.05,,,2.56,weatherlink.com 1.10,2013-01-15 02:28:00,
2013-01-14 21:43:00,42.2,42.0,30.08,SSE,159,0.0,2.0,98,0.03,,,2.56,weatherlink.com 1.10,2013-01-15 02:43:00,
2013-01-14 21:58:00,42.0,42.0,30.07,East,84,0.0,2.0,98,0.01,,,2.56,weatherlink.com 1.10,2013-01-15 02:58:00,
2013-01-14 22:13:00,42.2,42.0,30.08,SSE,165,0.0,2.0,99,0.01,,,2.57,weatherlink.com 1.10,2013-01-15 03:13:00,
2013-01-14 22:28:00,41.8,41.0,30.06,South,172,2.0,2.0,98,0.01,,,2.57,weatherlink.com 1.10,2013-01-15 03:28:00,
2013-01-14 22:43:00,41.8,42.0,30.06,NE,39,1.0,4.0,99,0.02,,,2.58,weatherlink.com 1.10,2013-01-15 03:43:00,
2013-01-14 22:58:00,42.7,43.0,30.05,North,2,0.0,3.0,99,0.06,,,2.62,weatherlink.com 1.10,2013-01-15 03:58:00,
2013-01-14 23:13:00,45.2,45.0,30.05,South,188,0.0,6.0,99,0.08,,,2.65,weatherlink.com 1.10,2013-01-15 04:13:00,
2013-01-14 23:28:00,48.6,48.0,30.04,SE,133,0.0,5.0,99,0.09,,,2.66,weatherlink.com 1.10,2013-01-15 04:28:00,
2013-01-14 23:43:00,50.4,50.0,30.02,NNE,21,1.0,12.0,99,0.11,,,2.69,weatherlink.com 1.10,2013-01-15 04:43:00,
2013-01-14 23:58:00,51.8,52.0,30.02,SSW,193,3.0,9.0,100,0.08,,,2.70,weatherlink.com 1.10,2013-01-15 04:58:00,